星链-32176 (STARLINK-32176)

导读 | 豆包AI

STARLINK-32176是美国太空探索技术公司星链计划的卫星,于2024年8月2日发射入轨,属于星链星座组网卫星。星链旨在构建全球卫星互联网系统,为全球提供低延迟、高速率的宽带网络覆盖,该卫星进一步扩充了星链星座的规模,推动全球无缝网络覆盖进程。

Basic Information
目录编号:
60340
目录名称:
STARLINK-32176
国际标识:
2024-136M
轨道中心:
EARTH
卫星名称:
星链-32176 (STARLINK-32176)
卫星全名:
星链-32176 (STARLINK-32176)
卫星状态:
在轨 (已飞行590 天)
发射日期:
2024-08-02 UTC
国别 :
美国 (US)
星等 :
--
Orbit Information
数据来源 国际轨道数据
星历时间: 2026-03-15T12:04:29+0800
12小时前
查看轨道信息
半长轴: 6853.391km
偏心率: 0.0000871
轨道倾角: 53.162°
近地点辐角 95.472°
升交点赤经 50.200°
平近点角 264.639°
近地点: 474.657km
远地点: 475.851km
周期: 94.106分钟
每日圈数: 15.30187
Detailed Information
卫星平台:
Starlink v2.0 mini
运营商:
太空探索技术公司
运营商所在国:
美国
制造商(研发单位):
太空探索技术公司
制造商所在国:
美国
使用方式:
暂无
Satellite Introduction
星链(Starlink)计划是由太空探索技术公司(SpaceX)提出的一个巨型低轨卫星互联网星座项目,计划在2019年至2024年间在太空搭建由约1.2万颗卫星组成的“星链”网络,其中1584颗将部署在地球上空550千米处的近地轨道,并从2020年开始工作。该卫星仍在工作。
2D Orbit Map
3D Orbit Map
Orbit Altitude Analysis Chart
Orbit Inclination Analysis Chart
Orbit Comprehensive Analysis Chart
View Comprehensive Chart